Regional Weather Roundup
Issued by NWS

Home | Current Version | Previous Version | Text Only | Print | Product List | Glossary On
Versions: 1 2 3 4 5 6 7 8 9 10 11 12 13 14 15 16 17 18 19 20 21 22 23 24 25 26 27 28 29 30 31 32 33 34 35 36 37 38 39 40 41 42 43 44 45 46 47 48 49 50
000
ASUS43 KTOP 221059
RWRKS

WEATHER ROUNDUP FOR KANSAS
NATIONAL WEATHER SERVICE GOODLAND KS
600 AM CDT TUE AUG 22 2017

NOTE:  "FAIR" INDICATES FEW OR NO CLOUDS BELOW 12,000 FEET WITH NO
SIGNIFICANT WEATHER AND/OR OBSTRUCTIONS TO VISIBILITY.

KSZ001>006-013>018-027>032-041>047-221200-
NORTHWEST KANSAS

CITY           SKY/WX    TMP DP  RH WIND       PRES   REMARKS
GOODLAND       CLEAR     61  60  97 N6        30.21R
HAYS           CLOUDY    67  63  87 N12       30.10R
HILL CITY      CLEAR     65  63  93 N12       30.14R
RUSSELL        CLOUDY    68  63  84 N16G24    30.06R
$$

KSZ061>065-074>080-084>089-221200-
SOUTHWEST KANSAS

CITY           SKY/WX    TMP DP  RH WIND       PRES   REMARKS
DODGE CITY     CLOUDY    69  66  90 N16       30.08R
ELKHART          N/A     66  67 100 N18         N/A
GARDEN CITY    CLEAR     67  63  87 N17       30.12R
GREAT BEND     CLOUDY    69  67  93 N20       30.05R
$$

KSZ066>073-081>083-090>101-221200-
SOUTHEAST KANSAS

CITY           SKY/WX    TMP DP  RH WIND       PRES   REMARKS
CHANUTE        CLEAR     76  72  87 S8        29.99R
COFFEYVILLE    CLOUDY    79  72  79 SW12      29.98R
HUTCHINSON     PTCLDY    72  70  93 S3        29.99R
MEDICINE LODGE   N/A     72  67  84 CALM      30.00R
NEWTON         MOCLDY    75  69  81 W6        30.00R
PARSONS        CLOUDY    77  72  84 S5        30.00R
WICHITA INTL   MOCLDY    75  71  87 S5        29.97R
WICHITA JABRA  LGT RAIN  75  72  90 W9        30.00R
WICHITA MCCONL MOCLDY    76  69  80 SW8       29.98R
WINFIELD       CLEAR     76  70  82 S7        29.99S
$$

KSZ007>012-019>026-033>040-048>060-102>105-221200-
NORTHEAST KANSAS

CITY           SKY/WX    TMP DP  RH WIND       PRES   REMARKS
CONCORDIA      CLOUDY    67  66  97 NE9       30.08R
EMPORIA        LGT RAIN  68  67  96 N6        30.02R
LAWRENCE       CLOUDY    68  67  96 NE3       30.03R
MANHATTAN      CLOUDY    68  66  93 NE12      30.05R
OLATHE IND     LGT RAIN  66  65  96 S9        30.03R
OLATHE EXE     CLOUDY    65  65 100 S9        30.01R
SALINA         CLOUDY    75  71  87 NE13G22   30.02R
TOPEKA BILLARD CLOUDY    68  68 100 N8        30.04R
TOPEKA FORBES  CLOUDY    69  68  96 E5        30.03R
$$




USA.gov is the U.S. government's official web portal to all federal, state and local government web resources and services.